Location: Drebach
(50.6670°N, 13.0330°E)
Time: 16:37:32
(UTC+01:00)

ISS - Visible Passes

Search period start: 24 January 2021 00:00
Search period end: 03 February 2021 00:00
Orbit: 418 x 421 km, 51.6° (Epoch: 24 January)

Date Brightness Start Highest point End Pass type
(mag) Time Alt. Az. Time Alt. Az. Time Alt. Az.
24 Jan -3.9 18:45:47 10° WSW 18:49:10 87° SSE 18:49:25 75° E visible
25 Jan -3.7 17:58:26 10° WSW 18:01:48 70° SSE 18:04:00 20° E visible
25 Jan -1.6 19:35:17 10° W 19:36:58 27° W 19:36:58 27° W visible
26 Jan -3.8 18:47:53 10° W 18:51:15 74° N 18:51:32 68° NE visible
27 Jan -3.8 18:00:27 10° W 18:03:51 81° N 18:06:05 20° ENE visible
27 Jan -1.6 19:37:22 10° WNW 19:39:04 27° WNW 19:39:04 27° WNW visible
28 Jan -3.9 18:49:57 10° W 18:53:20 76° N 18:53:37 69° NE visible
29 Jan -3.7 18:02:31 10° W 18:05:53 72° N 18:08:11 19° E visible
29 Jan -1.7 19:39:23 10° WNW 19:41:09 28° W 19:41:09 28° W visible
30 Jan -3.8 18:51:56 10° WNW 18:55:20 82° SSW 18:55:46 65° SE visible
31 Jan -3.8 18:04:30 10° WNW 18:07:53 84° N 18:10:25 17° E visible
31 Jan -1.6 19:41:26 10° W 19:43:24 26° WSW 19:43:24 26° WSW visible
01 Feb -3.0 18:53:54 10° W 18:57:11 48° SSW 18:58:08 36° SSE visible
02 Feb -3.4 18:06:26 10° WNW 18:09:47 64° SSW 18:12:57 11° ESE visible
02 Feb -1.2 19:43:50 10° W 19:45:57 17° SW 19:45:57 17° SW visible
